Home > Weather > Terre Haute > Past weeks

Flag for U.S.A. Weather for the Past 2 Weeks in Terre Haute, Indiana, U.S.A.

Now
10 °F

Clear.


Feels Like: -5 °F
Forecast: 5 / 17 °F
Wind: 12 mph from North

Location: Terre Haute International Airport - Hulman Field

Current Time: Feb 13, 2016 at 5:14:18 AM

Latest Report: Feb 13, 2016 at 4:53 AM


Visibility: 10 mi

Pressure: 30.56 "Hg

Humidity: 55%

Dew point: -3 °F

Location of Terre HauteLocation

Historic Weather in Terre Haute — Graph

°F

Terre Haute Temperature Yesterday

Maximum temperature yesterday: 27 °F (at 1:53 PM)
Minimum temperature yesterday: 17 °F (at 11:53 PM)
Average temperature yesterday: 23 °F

High & Low Weather Summary for the Past Weeks

 TemperatureHumidityPressure
High63 °F (Jan 31, 12:53 PM)96% (Feb 1, 8:53 AM)30.54 "Hg (Feb 1, 8:53 AM)
Low8 °F (Feb 11, 6:53 AM)39% (Feb 7, 1:53 PM)29.49 "Hg (Feb 2, 9:53 PM)
Average33 °F70%30.03 "Hg
* Reported Jan 29 3:53 AM — Feb 13 3:53 AM, Terre Haute, Weather by CustomWeather, © 2016

Note: Actual official high and low records may vary slightly from our data, if they occured in-between our weather recording intervals... More about our weather records

Advertising

Terre Haute Weather History for the Previous 24 Hours

 ConditionsComfort  
Time TempWeatherWind HumidityBarometerVisibility
3:53 AM
Sat, Feb 13
12 °FClear.8 mph61%30.54 "Hg10 mi
2:53 AM14 °FClear.12 mph61%30.51 "Hg10 mi
1:53 AM15 °FClear.12 mph61%30.49 "Hg10 mi
12:53 AM16 °FClear.13 mph59%30.46 "Hg10 mi
11:53 PM
Fri, Feb 12
17 °FClear.16 mph59%30.44 "Hg10 mi
10:53 PM19 °FClear.21 mph57%30.42 "Hg10 mi
9:53 PM20 °FLight snow. Clear.15 mph55%30.39 "Hg10 mi
8:53 PM22 °FClear.15 mph57%30.36 "Hg10 mi
7:53 PM24 °FPassing clouds.13 mph55%30.33 "Hg10 mi
6:53 PM24 °FPassing clouds.7 mph60%30.30 "Hg10 mi
5:53 PM25 °FPartly sunny.15 mph58%30.27 "Hg10 mi
4:53 PM27 °FMore clouds than sun.20 mph63%30.24 "Hg10 mi
3:53 PM27 °FLight snow. More clouds than sun.13 mph78%30.22 "Hg2 mi
2:53 PM26 °FLight snow. Overcast.15 mph74%30.22 "Hg8 mi
1:53 PM27 °FOvercast.10 mph72%30.21 "Hg10 mi
12:53 PM26 °FOvercast.15 mph71%30.23 "Hg10 mi
11:53 AM26 °FOvercast.9 mph71%30.23 "Hg10 mi
10:53 AM25 °FMore clouds than sun.9 mph69%30.23 "Hg10 mi
9:53 AM23 °FOvercast.8 mph72%30.24 "Hg10 mi
8:53 AM23 °FOvercast.7 mph68%30.24 "Hg10 mi
7:53 AM22 °FOvercast.3 mph68%30.24 "Hg10 mi
6:53 AM22 °FMostly cloudy.No wind68%30.22 "Hg10 mi
5:53 AM22 °FOvercast.No wind68%30.22 "Hg10 mi
Weather by CustomWeather, © 2016

See weather overviewHow to use our weather pages